Location: Zlin
(49.2330°N, 17.6670°E)
Time: 02:13:01
(UTC+01:00)

ISS - Pass Details

Date: 06 October 2020
Orbit: 417 x 420 km, 51.6° (Epoch: 25 October)

Event Time Altitude Azimuth Distance (km) Brightness Sun altitude
Rises 18:45:24 0° 289° (WNW) 2,369 1.6 -5.5°
Reaches altitude 10° 18:47:34 10° 282° (WNW) 1,503 0.7 -5.8°
Maximum altitude 18:50:45 40° 211° (SSW) 636 -2.5 -6.4°
Drops below altitude 10° 18:53:55 10° 141° (SE) 1,496 -1.3 -6.9°
Enters shadow 18:55:38 - 134° (SE) 2,176 -0.6 -7.1°
